326P/Hill (2023)

Japanese version
Home page
Updated on January 4, 2024

---------------------------------------------------------------------

* Profile

* Pictures

* Orbital Elements

Epoch 2023 Feb. 25.0 TT = JDT 2460000.5
T 2023 Dec. 30.56976 TT                                 Rudenko
q   2.7696504            (2000.0)            P               Q
n   0.12035478     Peri.  278.66096     +0.94758190     -0.31667564
a   4.0628160      Node    99.80937     +0.30748239     +0.86765974
e   0.3182929      Incl.    2.47117     +0.08685121     +0.38325333
P   8.19
>From 193 observations 1990 Sept. 24-2023 July 2, mean residual 0".7.

* Magnitudes Graph

        m1 = 10.0 + 5 log d + 15.0 log r

---------------------------------------------------------------------

The orbital elements are published on M.P.E.C. 2023-N16.
The magnitudes graphs are made with Comet for Windows.

---------------------------------------------------------------------

Copyright(C) Seiichi Yoshida (comet@aerith.net). All rights reserved.